Volver al catálogo

METEOR M2-3

ActivoMeteoSSO
NORAD 57166·PAYLOAD·🇷🇺 Russia

Lanzado Jun 27, 2023 desde Vostochny Cosmodrome

Loading…

Próximos Pases (próximas 24 horas)

TLE

ActualizadoSource: Space-Track

Época: Sep 14, 2026, 14:41 UTC

1 57166U 23091A   26257.61240375 -.00000021  00000-0  95360-5 0  9992
2 57166  98.5996 310.7212 0002798 269.8227  90.2631 14.24052502167247

Sigue METEOR M2-3 en tiempo real con AllMySat

Download on the App Store